Location: Buchloe
(48.0161°N, 10.7316°E)
Time: 17:55:18
(UTC+02:00)

ISS - Pass Details

Date: 25 May 2018
Orbit: 402 x 407 km, 51.6° (Epoch: 23 May)

Event Time Altitude Azimuth Distance (km) Brightness Sun altitude
Rises 23:35:30 0° 279° (W) 2,319 0.5 -17.5°
Reaches altitude 10° 23:37:39 10° 287° (WNW) 1,459 -0.5 -17.6°
Maximum altitude 23:40:47 41° 359° (N) 595 -2.5 -17.8°
Drops below altitude 10° 23:43:54 10° 73° (ENE) 1,457 -1.1 -18.0°
Enters shadow 23:44:41 - 76° (ENE) 1,760 -0.7 -18.1°
